TimeEDT,TemperatureF,Dew PointF,Humidity,Sea Level PressureIn,VisibilityMPH,Wind Direction,Wind SpeedMPH,Gust SpeedMPH,PrecipitationIn,Events,Conditions,WindDirDegrees,DateUTC
12:52 AM,64.0,63.0,96,30.00,9.0,Calm,Calm,-,N/A,,Mostly Cloudy,0,2013-07-22 04:52:00
1:52 AM,63.0,61.0,93,29.99,9.0,Calm,Calm,-,N/A,,Overcast,0,2013-07-22 05:52:00
2:52 AM,62.1,60.1,93,29.99,10.0,Calm,Calm,-,N/A,,Mostly Cloudy,0,2013-07-22 06:52:00
3:52 AM,63.0,61.0,93,29.99,10.0,Calm,Calm,-,N/A,,Overcast,0,2013-07-22 07:52:00
4:52 AM,61.0,59.0,93,29.99,8.0,Calm,Calm,-,N/A,,Clear,0,2013-07-22 08:52:00
5:52 AM,62.1,60.1,93,30.00,8.0,Calm,Calm,-,N/A,,Overcast,0,2013-07-22 09:52:00
6:52 AM,63.0,61.0,93,30.01,10.0,Calm,Calm,-,N/A,,Scattered Clouds,0,2013-07-22 10:52:00
7:15 AM,64.4,60.8,88,30.02,10.0,Calm,Calm,-,N/A,,Scattered Clouds,0,2013-07-22 11:15:00
7:52 AM,66.0,61.0,84,30.01,10.0,Calm,Calm,-,N/A,,Mostly Cloudy,0,2013-07-22 11:52:00
8:52 AM,69.1,61.0,75,30.01,10.0,Calm,Calm,-,N/A,,Scattered Clouds,0,2013-07-22 12:52:00
9:52 AM,70.0,60.1,71,30.01,10.0,Calm,Calm,-,N/A,,Overcast,0,2013-07-22 13:52:00
10:52 AM,72.0,61.0,68,29.99,10.0,Variable,3.5,-,N/A,,Mostly Cloudy,0,2013-07-22 14:52:00
11:52 AM,78.1,60.1,54,29.98,10.0,Variable,5.8,-,N/A,,Scattered Clouds,0,2013-07-22 15:52:00
12:52 PM,81.0,57.9,45,29.96,10.0,Calm,Calm,-,N/A,,Clear,0,2013-07-22 16:52:00
1:52 PM,84.0,57.9,41,29.93,10.0,ESE,12.7,17.3,N/A,,Mostly Cloudy,110,2013-07-22 17:52:00
2:52 PM,84.0,57.9,41,29.91,10.0,ESE,11.5,-,N/A,,Mostly Cloudy,120,2013-07-22 18:52:00
3:52 PM,82.9,57.9,42,29.91,10.0,SE,8.1,-,N/A,,Partly Cloudy,140,2013-07-22 19:52:00
4:52 PM,82.9,59.0,44,29.88,10.0,ESE,6.9,-,N/A,,Clear,120,2013-07-22 20:52:00
5:52 PM,82.0,62.1,51,29.87,10.0,SSE,9.2,-,N/A,,Partly Cloudy,160,2013-07-22 21:52:00
6:52 PM,79.0,63.0,58,29.87,10.0,East,6.9,-,N/A,,Partly Cloudy,100,2013-07-22 22:52:00
7:52 PM,78.1,62.1,58,29.86,10.0,East,3.5,-,N/A,,Overcast,90,2013-07-22 23:52:00
8:52 PM,77.0,63.0,62,29.87,10.0,East,6.9,-,N/A,,Overcast,90,2013-07-23 00:52:00